Tracking 30743 objects as of 20-Jun-2025
HD Live streaming from Space Station
objects crossing your sky now

SITRO-AIS-11

Track SITRO-AIS-11 now!
10-day predictions
SITRO-AIS-11 is classified as:


NORAD ID: 57208
Int'l Code: 2023-091AU
Perigee: 493.3 km
Apogee: 503.4 km
Inclination: 97.6 °
Period: 94.4 minutes
Semi major axis: 6869 km
RCS: Unknown
Launch date: June 27, 2023
Source: (TBD)
Launch site: VOSTOCHNY COSMODROME (VOSTO)

Uplink (MHz):
Downlink (MHz): 437.050
Beacon (MHz):
Mode: 1145baudAFSK
Call sign: RS41S
Status: Unknown


Uplink (MHz):
Downlink (MHz): 401.320
Beacon (MHz):
Mode: 2k4 GMSK_USP
Call sign: SC2213
Status: Active


Uplink (MHz):
Downlink (MHz): 436.260
Beacon (MHz):
Mode: LoRa
Call sign: RS52SD
Status: Unknown

Your satellite tracking list
Your tracking list is empty




NASA's NSSDC Master Catalog

Two Line Element Set (TLE):
1 57208U 23091AU  25171.47549457  .00008357  00000-0  33884-3 0  9990
2 57208  97.5591 231.6488 0007348 266.0326  94.0071 15.24873836109434
Source of the keplerian elements: AFSPC